Regional Weather Roundup
Issued by NWS

Home | Current Version | Previous Version | Graphics & Text | Print | Product List | Glossary Off
Versions: 1 2 3 4 5 6 7 8 9 10 11 12 13 14 15 16 17 18 19 20 21 22 23 24 25 26 27 28 29 30 31 32 33 34 35 36 37 38 39 40 41 42 43 44 45 46 47 48 49 50

000
ASUS43 KMKX 221721
RWRWI

WISCONSIN REGIONAL WEATHER ROUNDUP
NATIONAL WEATHER SERVICE MILWAUKEE/SULLIVAN WI
1200 PM CDT WED MAR 22 2017

NOTE: "FAIR" INDICATES FEW OR NO CLOUDS BELOW 12,000 FEET WITH NO
SIGNIFICANT WEATHER AND/OR OBSTRUCTIONS TO VISIBILITY.

WIZ001-002-006>008-014>016-023>028-221800-
NORTHWEST WISCONSIN

CITY           SKY/WX    TMP DP  RH WIND       PRES   REMARKS
SUPERIOR ARPT  MOSUNNY   31   7  37 CALM      30.57F
ASHLAND        SUNNY     31  12  45 VRB5      30.58F WCI  26
HAYWARD        SUNNY     28   5  37 VRB6      30.55S WCI  22
SIREN          SUNNY     32   5  32 SE6       30.54F WCI  26
CUMBERLAND     SUNNY     30   5  34 SE7       30.53F WCI  23
RICE LAKE      SUNNY     32  10  40 SE10      30.55F WCI  23
CHETEK         SUNNY     31   9  39 S8        30.56F WCI  23
LADYSMITH      SUNNY     30   8  39 SE6       30.57F WCI  24
EAU CLAIRE     SUNNY     31   5  33 SE12      30.56F WCI  22
MENOMONIE      SUNNY     33   5  30 SE12      30.56F WCI  24
NEW RICHMOND   SUNNY     32   6  33 SE9G16    30.54F WCI  24
OSCEOLA        SUNNY     32   8  36 SE12      30.57F WCI  23
$$

WIZ003>005-009-010-017-018-221800-
NORTH CENTRAL WISCONSIN

CITY           SKY/WX    TMP DP  RH WIND       PRES   REMARKS
MANITOWISH WTR SUNNY     24   4  42 E3        30.53F
ARBOR VITAE    SUNNY     25   6  44 S6        30.53S WCI  18
WOODRUFF       SUNNY     25   6  44 S6        30.53S WCI  18
RHINELANDER    SUNNY     27   6  41 VRB6      30.54S WCI  20
EAGLE RIVER    SUNNY     24   1  37 NE3       30.53F
LAND O LAKES   SUNNY     25   3  38 SE3       30.54F
PHILLIPS       SUNNY     27   6  40 SW3       30.53F
TOMAHAWK       SUNNY     28   6  40 S3        30.55F
MEDFORD        SUNNY     25   9  50 S6        30.54F WCI  18
MERRILL        SUNNY     27   9  46 S8        30.57F WCI  19
$$

WIZ029-030-035-036-043>047-221800-
CENTRAL WISCONSIN

CITY           SKY/WX    TMP DP  RH WIND       PRES   REMARKS
WAUSAU         SUNNY     26   7  44 CALM      30.57S
MOSINEE        SUNNY     27   9  46 VRB6      30.58S WCI  20
MARSHFIELD     SUNNY     28   8  43 E8        30.55F WCI  20
STEVENS POINT  SUNNY     25   6  42 E8        30.60S WCI  17
WAUPACA        SUNNY     32   9  37 S5        30.62F WCI  27
WAUTOMA        SUNNY     28  11  48 CALM      30.61
WISC RAPIDS    SUNNY     30   7  37 SE6       30.60F WCI  24
CAMP DOUGLAS   MOSUNNY   30   7  37 VRB5      30.58F WCI  25
$$

WIZ011>013-019>022-031-037>040-048>050-221800-
NORTHEAST WISCONSIN

CITY           SKY/WX    TMP DP  RH WIND       PRES   REMARKS
ANTIGO         SUNNY     25   6  43 S3        30.56S
SHAWANO        SUNNY     30  11  45 N6        30.63S WCI  24
OCONTO         SUNNY     25  11  54 CALM      30.64S
STURGEON BAY   PTSUNNY   27  13  55 E5        30.63S WCI  22
GREEN BAY      SUNNY     30  17  58 VRB5      30.63S WCI  25
MANITOWOC      CLOUDY    27  16  63 NE5       30.63S WCI  22
APPLETON       SUNNY     28   9  43 VRB5      30.60S WCI  23
CLINTONVILLE   SUNNY     28   9  43 SW5       30.62S WCI  23
OSHKOSH        SUNNY     27  12  53 E7        30.62S WCI  19
$$

WIZ032>034-041-042-053>061-221800-
SOUTHWEST WISCONSIN

CITY           SKY/WX    TMP DP  RH WIND       PRES   REMARKS
LA CROSSE      SUNNY     34   6  31 SE9       30.58F WCI  27
SPARTA         SUNNY     32   6  33 SE8       30.59F WCI  25
VIROQUA        SUNNY     32   7  34 SE7       30.54F WCI  25
BOSCOBEL       SUNNY     35   5  28 NE6       30.59F WCI  30
PRAIRIE DU CHI SUNNY     33   7  33 E9        30.58F WCI  25
PLATTEVILLE    SUNNY     33  13  43 E12       30.56F WCI  24
$$

WIZ056-057-062-063-064-067-068-221800-
SOUTH CENTRAL WISCONSIN

CITY           SKY/WX    TMP DP  RH WIND       PRES   REMARKS
REEDSBURG      SUNNY     32   8  36 SE3       30.58F
BARABOO/DELLS  SUNNY     30   7  38 NE8       30.58F WCI  22
LONE ROCK      SUNNY     32   7  35 SE7       30.59F WCI  26
MINERAL POINT  SUNNY     32   5  32 E8        30.56S WCI  25
MADISON        MOSUNNY   30  10  43 VRB6      30.58F WCI  24
MIDDLETON      SUNNY     32  12  43 SE6       30.59F WCI  26
WATERTOWN      SUNNY     31  14  49 NE5       30.59S WCI  27
MONROE         SUNNY     32  12  43 E9        30.56S WCI  24
JANESVILLE     SUNNY     34  12  40 E12G17    30.58F WCI  25
$$

WIZ051-052-058>065-066-070>072-221800-
SOUTHEAST WISCONSIN

CITY           SKY/WX    TMP DP  RH WIND       PRES   REMARKS
MILWAUKEE      CLOUDY    32  16  51 E8        30.60F WCI  25
WAUKESHA       PTSUNNY   30  16  55 E8        30.60F WCI  23
MILWAUKEE/TIMM MOSUNNY   30  12  47 E7        30.62S WCI  23
RACINE         CLOUDY    32  16  51 NE8       30.62S WCI  25
KENOSHA        CLOUDY    31  16  54 NE7       30.59F WCI  24
FOND DU LAC    SUNNY     30  13  49 VRB5      30.61S WCI  25
SHEBOYGAN      CLOUDY    28  16  60 NE7       30.62S WCI  21
WEST BEND      CLOUDY    30  16  55 CALM      30.60S
JUNEAU         SUNNY     30  15  52 E5        30.60F WCI  25
$$

LSZ147-162-221800-
LAKE SUPERIOR

STATION/POSITION TIME  TEMP    WIND        PRES    WAVE
                       AIR SEA DIR/SP/G            HT/PER
                 (UTC) (F)     (DEG/KT/KT) (MB)    (FT/S)
DEVILS ISLAND    1700   24      80/  8/ 10 1037.2F
PORT WING        1640   28      10/  6/  7 1035.6F
SAXON HARBOR     1640   27      30/  7/  8 1035.2F
$$

LMZ867-665-643>646-221800-
LAKE MICHIGAN

STATION/POSITION TIME  TEMP    WIND        PRES    WAVE
                       AIR SEA DIR/SP/G            HT/PER
                 (UTC) (F)     (DEG/KT/KT) (MB)    (FT/S)
CHAMBERS ISLAND  1640   24      10/  6/  7 1036.9R
NORTHPORT PIER   1640   23      90/  4/  7 1036.9S
SISTER BAY       1535   35      30/ 10/ 12   N/A
KEWAUNEE LAKESHO 1654   26      40/  6/  9 1036.6R
SHEBOYGAN LAKESH 1700   26      40/  7/  9 1037.8S
PORT WASHINGTON  1640   29      70/  3/  7 1037.6F
MILWAUKEE LAKESH 1650   28      70/  8/  9   N/A
KENOSHA   LAKESH 1700   28      40/ 10/ 13 1035.9
$$

TC  - TEMPERATURE IN CELSIUS
VSB - VISIBILITY IN STATUTE MILES
WCI - WIND CHILL INDEX
HX  - HEAT INDEX





USA.gov is the U.S. government's official web portal to all federal, state and local government web resources and services.